KZ-1A R/B (44837 NORAD) Tracking and Keplerian Element Data

This shows tracking and keplerian element data for the satellite.

Feedback or suggestion? Click here.




ElementValue
Catalog44837
NameKZ-1A R/B
Epoch Orbit384
Epoch Day1.177775
Epoch Year2020
RAAN71.6841
Inclination97.5143
Eccentricity0.035252
Argument of Perigee68.4998
Mean Anonmoly295.2356
Mean Motion15.47961911
Decay Rate0.00309157
L11 44837U 19086B 20001.17777500 .00309157 19144-5 33313-3 0 9992
L22 44837 97.5143 71.6841 0352520 68.4998 295.2356 15.47961911 3846

Live tracking and technical data element details for KZ-1A R/B (NORAD 44837). KZ-1A R/B can be tracked NOW for your location showing map with azimuth and elevation plus other details from your city location.

Track the satellite on the map from your city or location and see movement details for azimuth, elevation, latitude, longitude, range, height, and movement on the map or in text.







IsCatalogInMostPopularTable: catalog: 44837, numindb: 42
Update: records affected: 1



GetName: 44837 KZ-1A R/B

Hit Count: updated at: Sun, 05 Apr 2020 20:44:27 GMT